| time (UTC) | temp F | wind direction | speed knots | gust knots | rain 1hr in | rain 24hr in | rain mn in | humidity % | barometer mb |
| 20260504181702 | 64 | 289 | 6.1 | 15.6 | 0.00 | 0.00 | 0.00 | 29 | 1009.0 |
| 20260504180226 | 65 | 258 | 4.3 | 12.2 | 0.00 | 0.00 | 0.00 | 28 | 1008.9 |
| 20260504174710 | 65 | 239 | 3.5 | 14.8 | 0.00 | 0.00 | 0.00 | 28 | 1008.8 |
| 20260504173208 | 65 | 192 | 8.7 | 14.8 | 0.00 | 0.00 | 0.00 | 26 | 1009.1 |
| 20260504171731 | 65 | 272 | 3.5 | 15.6 | 0.00 | 0.00 | 0.00 | 28 | 1009.1 |
| 20260504170217 | 64 | 253 | 7.0 | 12.2 | 0.00 | 0.00 | 0.00 | 26 | 1008.8 |
| 20260504160245 | 61 | 239 | 6.1 | 12.2 | 0.00 | 0.00 | 0.00 | 31 | 1008.5 |
| 20260504150220 | 58 | 230 | 3.5 | 11.3 | 0.00 | 0.00 | 0.00 | 37 | 1009.2 |
| 20260504140210 | 55 | 243 | 5.2 | 10.4 | 0.00 | 0.00 | 0.00 | 39 | 1009.4 |
| 20260504130202 | 51 | 239 | 3.5 | 6.1 | 0.00 | 0.00 | 0.00 | 47 | 1009.9 |
| 20260504120204 | 48 | 185 | 2.6 | 8.7 | 0.00 | 0.00 | 0.00 | 52 | 1010.3 |
| 20260504110207 | 46 | 188 | 0.9 | 2.6 | 0.00 | 0.00 | 0.00 | 58 | 1010.3 |
| 20260504100159 | 45 | 188 | 1.7 | 5.2 | 0.00 | 0.00 | 0.00 | 56 | 1010.1 |
| 20260504081721 | 45 | 143 | 0.9 | 2.6 | 0.00 | 0.00 | 0.00 | 62 | 1009.9 |
| 20260504080209 | 44 | 143 | 0.0 | 4.3 | 0.00 | 0.00 | 0.00 | 61 | 1010.0 |
| 20260504070219 | 44 | 227 | 0.0 | 1.7 | 0.00 | 0.00 | 0.00 | 58 | 1010.0 |
| 20260504060214 | 44 | 267 | 0.0 | 1.7 | 0.00 | 0.00 | 0.00 | 53 | 1010.0 |
| 20260504050218 | 44 | 267 | 0.9 | 2.6 | 0.00 | 0.00 | 0.00 | 44 | 1010.4 |
| 20260504044726 | 42 | 291 | 0.0 | 0.9 | 0.00 | 0.00 | 0.00 | 55 | 1010.4 |
| 20260504043228 | 42 | 291 | 0.0 | 1.7 | 0.00 | 0.00 | 0.00 | 48 | 1010.6 |
| 20260504041704 | 39 | 291 | 0.0 | 0.0 | 0.00 | 0.00 | 0.00 | 56 | 1010.6 |
| 20260504040235 | 37 | 291 | 0.0 | 0.0 | 0.00 | 0.00 | 0.00 | 80 | 1010.6 |
| 20260504034659 | 37 | 291 | 0.0 | 0.0 | 0.00 | 0.00 | 0.00 | 81 | 1010.5 |
| 20260504033219 | 37 | 291 | 0.0 | 0.0 | 0.00 | 0.00 | 0.00 | 80 | 1010.7 |
| 20260504031705 | 37 | 291 | 0.0 | 0.0 | 0.00 | 0.00 | 0.00 | 78 | 1010.6 |
| 20260504030205 | 38 | 291 | 0.0 | 0.0 | 0.00 | 0.00 | 0.00 | 78 | 1010.5 |
| 20260504024714 | 38 | 291 | 0.0 | 0.0 | 0.00 | 0.00 | 0.00 | 74 | 1010.5 |
| 20260504023220 | 38 | 291 | 0.0 | 0.0 | 0.00 | 0.00 | 0.00 | 74 | 1010.7 |
| 20260504021709 | 39 | 291 | 0.0 | 0.0 | 0.00 | 0.00 | 0.00 | 73 | 1010.7 |
| 20260504014737 | 40 | 291 | 0.0 | 0.0 | 0.00 | 0.00 | 0.00 | 62 | 1010.6 |
| 20260504013214 | 40 | 291 | 0.0 | 0.0 | 0.00 | 0.00 | 0.00 | 65 | 1010.4 |
| 20260504011716 | 41 | 291 | 0.0 | 0.0 | 0.00 | 0.00 | 0.00 | 57 | 1010.3 |
| 20260504010213 | 42 | 291 | 0.0 | 0.0 | 0.00 | 0.00 | 0.00 | 53 | 1010.0 |
| 20260504004741 | 43 | 291 | 0.0 | 0.0 | 0.00 | 0.00 | 0.00 | 51 | 1009.8 |
| 20260504003205 | 44 | 291 | 0.0 | 0.0 | 0.00 | 0.00 | 0.00 | 50 | 1009.7 |
| 20260504001728 | 45 | 291 | 0.0 | 0.0 | 0.00 | 0.00 | 0.00 | 48 | 1009.6 |
| 20260504000213 | 46 | 291 | 0.0 | 0.0 | 0.00 | 0.00 | 0.00 | 44 | 1009.5 |
| 20260503234714 | 47 | 291 | 0.0 | 7.0 | 0.00 | 0.00 | 0.00 | 41 | 1009.4 |
| 20260503233231 | 48 | 274 | 0.9 | 3.5 | 0.00 | 0.00 | 0.00 | 36 | 1009.2 |
| 20260503231714 | 48 | 325 | 0.0 | 7.0 | 0.00 | 0.00 | 0.00 | 38 | 1009.1 |
| 20260503230158 | 48 | 336 | 3.5 | 9.6 | 0.00 | 0.00 | 0.00 | 38 | 1009.2 |
| 20260503224708 | 48 | 305 | 4.3 | 7.0 | 0.00 | 0.00 | 0.00 | 39 | 1009.1 |
| 20260503223205 | 48 | 350 | 2.6 | 9.6 | 0.00 | 0.00 | 0.00 | 38 | 1009.1 |
| 20260503221708 | 49 | 337 | 2.6 | 10.4 | 0.00 | 0.00 | 0.00 | 36 | 1008.9 |
| 20260503220212 | 47 | 354 | 9.6 | 18.2 | 0.00 | 0.00 | 0.00 | 37 | 1009.1 |
| 20260503214714 | 47 | 332 | 2.6 | 7.8 | 0.00 | 0.00 | 0.00 | 38 | 1008.8 |
| 20260503213210 | 48 | 343 | 3.5 | 13.9 | 0.00 | 0.00 | 0.00 | 38 | 1008.6 |
| 20260503211723 | 48 | 335 | 7.0 | 13.9 | 0.00 | 0.00 | 0.00 | 36 | 1008.5 |
| 20260503210218 | 48 | 356 | 6.1 | 14.8 | 0.00 | 0.00 | 0.00 | 34 | 1008.5 |
| 20260503204708 | 49 | 359 | 8.7 | 13.9 | 0.00 | 0.00 | 0.00 | 34 | 1008.3 |
| 20260503203209 | 47 | 356 | 5.2 | 24.3 | 0.00 | 0.00 | 0.00 | 35 | 1008.5 |
| 20260503201704 | 48 | 274 | 4.3 | 13.9 | 0.00 | 0.00 | 0.00 | 40 | 1008.2 |
| 20260503200226 | 48 | 344 | 5.2 | 15.6 | 0.00 | 0.00 | 0.00 | 33 | 1008.1 |
| 20260503194712 | 48 | 357 | 4.3 | 18.2 | 0.00 | 0.00 | 0.00 | 39 | 1008.1 |
| 20260503193211 | 47 | 354 | 11.3 | 18.2 | 0.00 | 0.00 | 0.00 | 33 | 1008.1 |
| 20260503191658 | 47 | 360 | 7.0 | 19.1 | 0.00 | 0.00 | 0.00 | 37 | 1008.1 |
| 20260503190217 | 48 | 359 | 7.8 | 13.9 | 0.00 | 0.00 | 0.00 | 34 | 1008.1 |
| 20260503184717 | 48 | 354 | 4.3 | 13.9 | 0.00 | 0.00 | 0.00 | 36 | 1007.7 |
| 20260503183158 | 48 | 326 | 8.7 | 14.8 | 0.00 | 0.00 | 0.00 | 32 | 1008.0 |